This demonstration page uses our WeatherBlox Daily Observations layout. Learn more.

36.17497, -115.13722

Hourly Observations for June 23, 2016

Temp ( °F °C ) Dew Point ( °F °C ) Humidity (%) Winds ( mph kmh ) Pressure ( in mb ) Visibility ( mi km ) Precip ( " mm )
12:53 am 00:53 Clear 92 33.3 26 -3.3 9 9 S 9 15 29.74 1007 10 16.0934 0 0
1:53 am 01:53 Clear 90 32.2 25 -3.9 9 9 ESE 6 9 29.76 1008 10 16.0934 0 0
2:53 am 02:53 Clear 89 31.7 26 -3.3 10 10 S 9 15 29.76 1008 10 16.0934 0 0
3:53 am 03:53 Clear 85 29.4 27 -2.8 12 12 Calm 29.78 1008 10 16.0934 0 0
4:53 am 04:53 Clear 81 27.2 29 -1.7 15 15 N 5 7 29.8 1009 10 16.0934 0 0
5:53 am 05:53 Sunny 81 27.2 29 -1.7 15 15 N 6 9 29.81 1010 10 16.0934 0 0
6:53 am 06:53 Sunny 84 28.9 31 -0.6 15 15 NE 6 9 29.83 1010 10 16.0934 0 0
7:53 am 07:53 Sunny 86 30 32 0 14 14 ESE 5 7 29.85 1011 10 16.0934 0 0
8:53 am 08:53 Sunny 89 31.7 33 0.6 14 14 SSE 5 7 29.86 1011 10 16.0934 0 0
9:53 am 09:53 Sunny 94 34.4 32 0 11 11 SE 7 11 29.85 1011 10 16.0934 0 0
10:53 am 10:53 Sunny 97 36.1 30 -1.1 9 9 SSE 8 13 29.86 1011 10 16.0934 0 0
11:53 am 11:53 Sunny 99 37.2 31 -0.6 9 9 VRB 5 7 29.85 1011 10 16.0934 0 0
12:53 pm 12:53 Sunny 102 38.9 31 -0.6 8 8 ESE 8 13 29.83 1010 10 16.0934 0 0
1:53 pm 13:53 Sunny 105 40.6 31 -0.6 7 7 ESE 10 17 29.8 1009 10 16.0934 0 0
2:53 pm 14:53 Sunny 105 40.6 31 -0.6 7 7 Calm 29.78 1009 10 16.0934 0 0
3:53 pm 15:53 Sunny 107 41.7 28 -2.2 6 6 SSW 8 13 29.75 1008 10 16.0934 0 0
4:53 pm 16:53 Sunny 107 41.7 26 -3.3 6 6 W 9 15 29.74 1007 10 16.0934 0 0
5:53 pm 17:53 Sunny 106 41.1 27 -2.8 6 6 S 7 11 29.72 1007 10 16.0934 0 0
6:53 pm 18:53 Sunny 106 41.1 30 -1.1 7 7 SSW 13 20 29.72 1007 10 16.0934 0 0
7:53 pm 19:53 Sunny 103 39.4 29 -1.7 7 7 SW 13 20 29.72 1007 10 16.0934 0 0
8:53 pm 20:53 Clear 100 37.8 29 -1.7 8 8 SSW 9 15 29.74 1007 10 16.0934 0 0
9:53 pm 21:53 Clear 97 36 28 -2 9 9 S 8 13 29.59 1002 10 16.0934 0 0
10:53 pm 22:53 Clear 94 34.4 30 -1.1 10 10 SSE 6 9 29.75 1008 10 16.0934 0 0
11:53 pm 23:53 Clear 91 32.8 32 0 12 12 Calm 29.76 1008 10 16.0934 0 0

Powered by AerisWeather